Starlink 3102

operational
NORAD ID: 49151 Int'l Des: 2021-082 Owner: SPXS Country: US Constellation: starlink
LEOCIRCULAR

Über Starlink 3102

Beschreibung wird geladen...

Live-Position

3D-Globus wird geladen...

Nächste Überflüge

Höhenverlauf

Altitude vs Time

uPlot chart will show altitude changes over time

Zweizeiliger Elementsatz

1 49151U 21082X 25348.72388348 .00000706 00000-0 66951-4 0 9992
2 49151 69.9997 108.6774 0003137 272.7310 87.3490 14.98325270235439
Epoch: 14. Dez. 2025 • Age: 29 hours

Aktueller Status

Höhe 576.5 km
Geschwindigkeit 7.57 km/s
Subsatellitenpunkt 30.20°N, 57.62°E
Startdatum 14. Sept. 2021
Alter 4.2 years
Typ internet

Technische Details

Klassifizierung Payload
Masse 297.00 kg
Trockenmasse 275.00 kg
Gesamtmasse 297.00 kg
Länge 0.20 m
Durchmesser 2.80 m
Spannweite 9.00 m
Form Box + pan
Hersteller SPXS
Bus-Typ Starlink
Phasenstatus In Orbit
Besitzer/Staat SPXS/US

Große Konstellationen

Loading constellations...